Location: Newark
(45.2500°N, 7.5833°E)
Time: 14:34:33
(UTC+00:00)

NUDT-PHONESAT - Pass Details

Date: 24 February 2020
Orbit: 486 x 502 km, 97.4° (Epoch: 09 April)

Event Time Altitude Azimuth Distance (km) Brightness Sun altitude
Rises 04:55:25 0° 34° (NE) 2,592 ? -15.2°
Reaches altitude 10° 04:58:43 10° 67° (ENE) 1,706 ? -14.6°
Maximum altitude 05:00:10 12° 90° (E) 1,584 ? -14.4°
Drops below altitude 10° 05:01:38 10° 114° (ESE) 1,703 ? -14.1°
Sets 05:04:54 0° 146° (SE) 2,583 ? -13.5°
